Terminal Aerodrome Forecast
Issued by NWS Dodge City, KS

Home | Current Version | Previous Version | Graphics & Text | Print | Product List | Glossary Off
Versions: 1 2 3 4 5 6 7 8 9 10 11 12 13 14 15 16 17 18 19 20 21 22 23 24 25 26 27 28 29 30 31 32 33 34 35 36 37 38 39 40 41 42 43 44 45 46 47 48 49 50

000
FTUS43 KDDC 240520
TAFDDC
TAF
KDDC 240520Z 2406/2506 13008KT P6SM OVC005
     FM240800 14008KT 3SM BR OVC004
      TEMPO 2409/2413 1 1/2SM BR OVC002
     FM241500 15013KT P6SM BKN013
     FM242300 14011KT P6SM BKN100=

USA.gov is the U.S. government's official web portal to all federal, state and local government web resources and services.